Tracking 29892 objects as of 21-Nov-2024
HD Live streaming from Space Station
objects crossing your sky now

STARLINK-31291

Track STARLINK-31291 now!
10-day predictions
STARLINK-31291 is classified as:


NORAD ID: 59096
Int'l Code: 2024-041Y
Perigee: 494.3 km
Apogee: 496.1 km
Inclination: 43.0 °
Period: 94.4 minutes
Semi major axis: 6866 km
RCS: Unknown
Launch date: February 29, 2024
Source: United States (US)
Launch site: AIR FORCE EASTERN TEST RANGE (AFETR)
Your satellite tracking list
Your tracking list is empty




NASA's NSSDC Master Catalog

Two Line Element Set (TLE):
1 59096U 24041Y   24325.47687121 -.00000407  00000-0 -57019-5 0  9992
2 59096  42.9992 105.6384 0001344 267.4150  92.6547 15.25911307 41776
Source of the keplerian elements: AFSPC